Regional Weather Roundup
Issued by NWS

Home | Current Version | Previous Version | Text Only | Print | Product List | Glossary On
Versions: 1 2 3 4 5 6 7 8 9 10 11 12 13 14 15 16 17 18 19 20 21 22 23 24 25 26 27 28 29 30 31 32 33 34 35 36 37 38 39 40 41 42 43 44 45 46 47 48 49 50
000
ASUS43 KIND 061109
RWRIN

WEATHER ROUNDUP FOR INDIANA
NATIONAL WEATHER SERVICE INDIANAPOLIS IN
600 AM EST TUE DEC 06 2016

NOTE: "FAIR" INDICATES FEW OR NO CLOUDS BELOW 12,000 FEET WITH NO
SIGNIFICANT WEATHER AND/OR OBSTRUCTIONS TO VISIBILITY.

* - STATION DOES NOT REPORT WEATHER SUCH AS PRECIPITATION OR FOG.

+ - STATION NOT QUALITY CONTROLLED BY THE NATIONAL WEATHER SERVICE.
    USE DATA WITH CAUTION...ESPECIALLY DEWPOINT AND RELATIVE
    HUMIDITY OBSERVATIONS.

INZ001>003-010>013-019-020-061200-
NORTHWEST INDIANA

CITY           SKY/WX    TMP DP  RH WIND       PRES   REMARKS
GARY /AIRPORT/ MOCLDY    32  32 100 MISG      29.81F
KNOX *+        CLOUDY    32  19  59 NE6       29.79F WCI  26
LA PORTE +     CLOUDY   N/A N/A N/A E7        29.80F HAZE
MICHIGAN CITY+ MOCLDY    32  32 100 E3        29.81F
MONTICELLO +   CLOUDY    33  28  83 NE8       29.77F WCI  25
RENSSELAER +     N/A     32  32 100 NE9       29.78F FOG     WCI  24
VALPARAISO     CLOUDY    32  28  85 E10       29.79F WCI  24

$$

LMZ046-743>745-061200-
SOUTHERN LAKE MICHIGAN

STATION/POSITION TIME  TEMP    WIND        PRES    WAVE
                       AIR SEA DIR/SP/G            HT
                 (UTC) (F)     (DEG/KT/KT) (MB)    (FT)
BURNS HARBOR     1040   33      90/  7/ 11 1010.2F

$$

INZ004-005-014>016-021>024-061200-
NORTH CENTRAL INDIANA

CITY           SKY/WX    TMP DP  RH WIND       PRES   REMARKS
GOSHEN         PTCLDY    32  27  81 E10       29.80F WCI  24
LOGANSPORT +   CLOUDY    32  30  93 E9        29.77F WCI  24
PERU/GRISSOM   CLOUDY    33  31  95 E14       29.74F WCI  23
ROCHESTER +    CLOUDY    34  32  93 E9        29.79F WCI  26
SOUTH BEND     PTCLDY    30  28  92 E8        29.82F WCI  22
WARSAW +       PTCLDY    32  28  86 E9        29.79F WCI  24

$$

INZ006>009-017-018-025>027-061200-
NORTHEAST INDIANA

CITY           SKY/WX    TMP DP  RH WIND       PRES   REMARKS
ANGOLA *+      CLEAR     32  27  80 E12       29.81F WCI  23
AUBURN +       CLOUDY    32  28  86 E12       29.81F WCI  23
FORT WAYNE     CLOUDY    31  28  89 E10       29.81F WCI  22
HUNTINGTON +   CLOUDY    31  29  93 E8        29.78F WCI  24
KENDALLVILLE + PTCLDY    32  29  88 E8        29.81F WCI  25

$$

INZ028-029-035-036-043>045-051>053-061200-
WEST CENTRAL INDIANA

CITY           SKY/WX    TMP DP  RH WIND       PRES   REMARKS
CRAWFORDSVL +  CLOUDY    35  35  99 E6        29.74S WCI  30
GREENCASTLE +  CLOUDY    36  36 100 E10       29.71F
LAFAYETTE      MOCLDY    34  32  92 E9        29.75F WCI  27
TERRE HAUTE    CLOUDY    39  34  82 NE3       29.73F

$$

INZ030>032-037>040-046>048-054>057-064-065-061200-
CENTRAL INDIANA

CITY           SKY/WX    TMP DP  RH WIND       PRES   REMARKS
CP ATTERBURY + LGT RAIN  37  34  87 E5        29.72F
FRANKFORT +    CLOUDY    37  33  87 SE8       29.76S
GREENWOOD *+   CLOUDY    38  34  84 E6        29.74F
INDIANAPOLIS   CLOUDY    39  32  76 E6        29.74S
-EAGLE CREEK   CLOUDY    39  32  76 E5        29.74F
KOKOMO +       CLOUDY    32  30  92 E13       29.75F FOG     WCI  22
MARION +       CLOUDY    32  30  92 E10       29.76F WCI  24
MT COMFORT *+  CLOUDY    36  32  87 E9        29.73F
SHELBYVILLE    CLOUDY    38  33  82 E8        29.73F
ZIONSVILLE +   CLOUDY    34  31  90 E7        29.74F WCI  28

$$

INZ033-034-041-042-049-050-058-059-061200-
EAST CENTRAL INDIANA

CITY           SKY/WX    TMP DP  RH WIND       PRES   REMARKS
MUNCIE         CLOUDY    35  30  82 E9        29.74F WCI  28

$$

INZ060-061-067>069-081>083-085>088-061200-
SOUTHWEST INDIANA

CITY           SKY/WX    TMP DP  RH WIND       PRES   REMARKS
EVANSVILLE     HVY RAIN  43  40  89 N8        29.68F FOG
HUNTINGBURG *+ CLOUDY    41  41 100 N7        29.68F
WASHINGTON +   RAIN      40  40 100 E7        29.70F

$$

INZ062-063-066-070>080-084-089>092-061200-
SOUTH CENTRAL AND SOUTHEAST INDIANA

CITY           SKY/WX    TMP DP  RH WIND       PRES   REMARKS
BLOOMINGTON    LGT RAIN  39  34  82 NE6       29.70F
MADISON *+     CLOUDY    37  36  93 E10       29.71F
NORTH VERNON + RAIN     N/A N/A N/A E8        29.73F
SEYMOUR +      LGT RAIN  41  39  93 E8        29.70

$$




USA.gov is the U.S. government's official web portal to all federal, state and local government web resources and services.